FW5819 Weather Reports


Display with metric or nautical units.
time (UTC)temp
F
wind
direction
speed
MPH
gust
MPH
rain 1hr
in
rain 24hr
in
rain mn
in
humidity
%
barometer
mb
20260904021551 69 156 1.0 6.0 0.00 0.23 0.23 94 1015.3
20260904020039 69 198 1.0 5.0 0.00 0.23 0.23 94 1015.0
20260904014542 69 135 1.0 8.0 0.00 0.23 0.23 94 1015.0
20260904013045 69 167 1.0 7.0 0.00 0.23 0.23 94 1014.7
20260904011550 69 90 2.0 9.0 0.00 0.23 0.23 94 1014.4
20260904010046 69 135 1.0 3.0 0.00 0.23 0.23 94 1014.9
20260904004544 69 0 0.0 3.0 0.04 0.23 0.23 94 1015.2
20260904003039 70 0 2.0 8.0 0.04 0.23 0.23 94 1015.2
20260904001548 70 0 1.0 5.0 0.04 0.23 0.23 94 1015.4
20260904000047 70 0 0.0 7.0 0.04 0.23 0.23 93 1015.1
20260903234543 70 0 0.0 5.0 0.00 0.19 0.19 93 1015.9
20260903233040 70 0 0.0 1.0 0.02 0.19 0.19 93 1016.1
20260903231539 70 0 0.0 3.0 0.10 0.19 0.19 93 1016.5
20260903230045 70 5 0.0 2.0 0.15 0.19 0.19 93 1017.3
20260903224543 70 0 0.0 4.0 0.17 0.18 0.18 92 1017.7
20260903223052 70 27 0.0 10.0 0.16 0.16 0.16 92 1017.9
20260903221541 71 323 4.0 19.0 0.09 0.09 0.09 91 1018.1
20260903220058 73 340 4.0 28.0 0.03 0.03 0.03 86 1016.6
20260903214539 79 0 0.0 0.0 0.00 0.00 0.00 85 1014.3
20260903213048 79 0 0.0 1.0 0.00 0.00 0.00 83 1014.6
20260903211541 81 0 0.0 1.0 0.00 0.00 0.00 82 1014.6
20260903210050 83 0 1.0 2.0 0.00 0.00 0.00 81 1013.7
20260903204542 84 0 0.0 0.0 0.00 0.00 0.00 80 1013.5
20260903203046 85 0 0.0 0.0 0.00 0.00 0.00 80 1013.1
20260903201546 85 117 1.0 4.0 0.00 0.00 0.00 79 1013.3
20260903200043 84 329 1.0 3.0 0.00 0.00 0.00 82 1013.4
20260903194547 84 0 0.0 1.0 0.00 0.00 0.00 82 1013.7
20260903193053 85 19 0.0 2.0 0.00 0.00 0.00 79 1014.0
20260903191540 85 334 2.0 7.0 0.00 0.00 0.00 76 1014.3
20260903190044 88 348 2.0 7.0 0.00 0.00 0.00 76 1014.6
20260903184543 88 15 2.0 6.0 0.00 0.00 0.00 75 1014.6
20260903183045 91 29 5.0 9.0 0.00 0.00 0.00 71 1014.6
20260903181542 93 265 3.0 7.0 0.00 0.00 0.00 65 1014.5
20260903180046 92 207 3.0 9.0 0.00 0.00 0.00 68 1014.6
20260903174540 92 280 3.0 10.0 0.00 0.00 0.00 69 1014.6
20260903173040 92 245 3.0 7.0 0.00 0.00 0.00 68 1015.2
20260903171553 92 239 2.0 8.0 0.00 0.00 0.00 69 1015.3
20260903170042 91 323 2.0 5.0 0.00 0.00 0.00 70 1015.4
20260903164542 91 215 2.0 6.0 0.00 0.00 0.00 72 1015.5
20260903163040 90 263 2.0 4.0 0.00 0.00 0.00 72 1015.7
20260903161547 89 195 2.0 5.0 0.00 0.00 0.00 73 1015.9
20260903160044 88 248 1.0 4.0 0.00 0.00 0.00 75 1015.8
20260903154541 87 267 1.0 5.0 0.00 0.00 0.00 75 1015.5
20260903153040 87 245 1.0 5.0 0.00 0.00 0.00 74 1015.6
20260903151541 87 299 3.0 7.0 0.00 0.00 0.00 73 1015.7
20260903150052 87 333 1.0 5.0 0.00 0.00 0.00 74 1015.6
20260903144545 87 324 1.0 6.0 0.00 0.00 0.00 75 1015.6
20260903143054 86 0 1.0 7.0 0.00 0.00 0.00 77 1015.6
20260903141541 85 196 1.0 7.0 0.00 0.00 0.00 77 1015.7
20260903140044 85 197 3.0 7.0 0.00 0.00 0.00 77 1015.7
20260903134550 84 213 2.0 5.0 0.00 0.00 0.00 78 1015.7
20260903133039 83 360 2.0 6.0 0.00 0.00 0.00 80 1015.8
20260903131550 82 258 2.0 6.0 0.00 0.00 0.00 81 1015.8
20260903130043 80 265 2.0 5.0 0.00 0.00 0.00 84 1016.0
20260903124538 78 0 0.0 2.0 0.00 0.00 0.00 88 1016.0
20260903123044 75 0 0.0 1.0 0.00 0.00 0.00 89 1016.0
20260903121543 75 0 0.0 1.0 0.00 0.00 0.00 88 1016.1
20260903120043 74 0 0.0 0.0 0.00 0.00 0.00 89 1016.2
20260903114539 74 208 0.0 0.0 0.00 0.00 0.00 88 1016.0
20260903113046 74 0 0.0 2.0 0.00 0.00 0.00 88 1016.0
20260903111541 74 0 0.0 1.0 0.00 0.00 0.00 87 1016.0
20260903110038 75 0 0.0 3.0 0.00 0.00 0.00 87 1015.9
20260903104549 75 0 0.0 3.0 0.00 0.00 0.00 87 1015.9
20260903103044 75 78 1.0 3.0 0.00 0.00 0.00 87 1015.9
20260903101542 74 28 0.0 1.0 0.00 0.00 0.00 89 1016.0
20260903100043 74 0 0.0 1.0 0.00 0.00 0.00 89 1015.8
20260903094542 73 0 0.0 1.0 0.00 0.00 0.00 89 1015.2
20260903093053 72 0 0.0 1.0 0.00 0.00 0.00 88 1015.1
20260903092016 72 0 0.0 0.0 0.00 0.00 0.00 87 1015.3
20260903090046 72 0 0.0 0.0 0.00 0.00 0.00 86 1015.2
20260903084542 73 0 0.0 1.0 0.00 0.00 0.00 85 1015.1
20260903083041 73 0 0.0 2.0 0.00 0.00 0.00 86 1015.1
20260903081544 72 0 0.0 2.0 0.00 0.00 0.00 86 1014.8
20260903080047 72 213 0.0 1.0 0.00 0.00 0.00 86 1015.1
20260903074543 72 0 0.0 0.0 0.00 0.00 0.00 86 1015.3
20260903073050 73 0 0.0 1.0 0.00 0.00 0.00 85 1015.5
20260903071546 73 0 0.0 4.0 0.00 0.00 0.00 85 1015.2
20260903070048 73 209 0.0 1.0 0.00 0.00 0.00 84 1015.2
20260903064539 74 0 0.0 0.0 0.00 0.00 0.00 83 1015.5
20260903063040 74 0 0.0 1.0 0.00 0.00 0.00 82 1015.7
20260903061542 75 0 0.0 1.0 0.00 0.00 0.00 80 1015.9
20260903060043 76 0 0.0 4.0 0.00 0.00 0.00 80 1016.2
20260903054541 77 327 1.0 8.0 0.00 0.00 0.00 79 1016.4
20260903053042 80 337 3.0 17.0 0.00 0.00 0.00 78 1016.7
20260903051552 82 0 1.0 7.0 0.00 0.00 0.00 80 1015.2
20260903050049 82 285 1.0 6.0 0.00 0.00 0.00 80 1014.9
20260903044546 82 265 2.0 6.0 0.00 0.00 0.00 80 1014.6
20260903043042 82 249 1.0 4.0 0.00 0.00 0.00 79 1014.4
20260903041544 82 177 1.0 8.0 0.00 0.00 0.00 79 1014.1
20260903040047 81 239 2.0 10.0 0.00 0.00 0.00 80 1014.1
20260903034541 81 0 1.0 8.0 0.00 0.00 0.00 80 1013.9
20260903033047 80 212 1.0 6.0 0.00 0.00 0.00 80 1013.8
20260903031544 80 223 1.0 6.0 0.00 0.00 0.00 80 1013.4
20260903030042 80 0 1.0 5.0 0.00 0.00 0.00 80 1013.9
20260903024543 80 182 1.0 5.0 0.00 0.00 0.00 80 1014.2
20260903023058 81 0 1.0 5.0 0.00 0.00 0.00 80 1014.4